Location: Eldred Sherwood Park Lake Dam
(42.9416°N, 93.5655°W)
Time: 18:09:19
(UTC+00:00)

Explorer 11/Cluster Stage 4 - Pass Details

Date: 17 December 2025
Orbit: 463 x 1180 km, 28.8° (Epoch: 12 January)

Event Time Altitude Azimuth Distance (km) Brightness Sun altitude
Rises 03:07:44 0° 255° (WSW) 3,949 10.7 -47.7°
Reaches altitude 10° 03:11:33 10° 239° (WSW) 2,893 9.8 -48.4°
Enters shadow 03:11:38 10° 238° (WSW) 2,871 9.7 -48.4°
